EW7144 Weather Reports


time (UTC)temp
C
wind
direction
speed
KPH
gust
KPH
rain 1hr
cm
rain 24hr
cm
rain mn
cm
humidity
%
barometer
mb
20260502162904 9 145 0.0 0.0 0.00 0.03 0.03 90 1034.5
20260502162405 9 145 0.0 1.6 0.00 0.03 0.03 90 1034.5
20260502161905 9 145 0.0 1.6 0.00 0.03 0.03 90 1034.5
20260502161406 9 145 0.0 0.0 0.00 0.03 0.03 90 1034.5
20260502160904 9 145 0.0 1.6 0.00 0.03 0.03 90 1034.4
20260502160404 9 145 0.0 1.6 0.00 0.03 0.03 90 1034.4
20260502151906 10 145 0.0 1.6 0.00 0.03 0.03 90 1034.5
20260502151404 10 145 1.6 3.2 0.00 0.03 0.03 90 1034.5
20260502150905 10 145 0.0 1.6 0.00 0.03 0.03 90 1034.5
20260502150406 10 145 1.6 3.2 0.00 0.03 0.03 90 1034.5
20260502130406 10 132 0.0 1.6 0.00 0.00 0.00 90 1034.3
20260502123410 10 131 0.0 1.6 0.00 0.00 0.00 90 1034.2
20260502122909 10 132 1.6 4.8 0.00 0.00 0.00 90 1034.3
20260502122409 10 134 1.6 4.8 0.00 0.00 0.00 90 1034.2
20260502121909 10 125 1.6 3.2 0.00 0.00 0.00 90 1034.1
20260502120909 10 117 0.0 0.0 0.00 0.00 0.00 90 1034.1
20260502120410 10 117 0.0 1.6 0.00 0.00 0.00 90 1034.0
20260502115909 10 117 0.0 1.6 0.00 0.00 0.00 90 1034.0
20260502115410 10 118 0.0 1.6 0.00 0.00 0.00 90 1033.9
20260502114908 10 118 0.0 1.6 0.00 0.00 0.00 90 1033.9
20260502113909 10 117 0.0 0.0 0.00 0.00 0.00 90 1033.8
20260502113410 10 118 0.0 1.6 0.00 0.00 0.00 90 1033.8
20260502112909 10 118 0.0 1.6 0.00 0.00 0.00 89 1033.7
20260502112411 10 118 0.0 1.6 0.00 0.00 0.00 89 1033.7
20260502111909 10 118 0.0 1.6 0.00 0.00 0.00 89 1033.7
20260502111409 10 118 0.0 1.6 0.00 0.00 0.00 89 1033.7
20260502110909 10 118 0.0 1.6 0.00 0.00 0.00 89 1033.7
20260502110409 10 118 0.0 1.6 0.00 0.00 0.00 89 1033.8
20260502105909 10 117 0.0 1.6 0.00 0.00 0.00 89 1033.8
20260502104410 10 118 0.0 0.0 0.00 0.00 0.00 89 1033.8
20260502102909 10 117 0.0 1.6 0.00 0.00 0.00 88 1033.7
20260502101909 10 117 0.0 1.6 0.00 0.00 0.00 88 1033.6
20260502101410 11 117 0.0 1.6 0.00 0.00 0.00 88 1033.6
20260502100909 11 117 0.0 1.6 0.00 0.00 0.00 88 1033.6
20260502100409 11 117 0.0 1.6 0.00 0.00 0.00 88 1033.5
20260502090906 11 117 0.0 1.6 0.00 0.00 0.00 88 1033.0
20260502090407 11 118 1.6 4.8 0.00 0.00 0.00 88 1032.9
20260502071408 11 101 0.0 1.6 0.00 0.00 0.00 86 1032.4
20260502070907 11 105 0.0 1.6 0.00 0.00 0.00 86 1032.3
20260502070407 11 106 1.6 3.2 0.00 0.00 0.00 86 1032.3
20260502065906 11 108 0.0 1.6 0.00 0.00 0.00 86 1032.3
20260502065407 12 101 0.0 3.2 0.00 0.00 0.00 86 1032.3
20260502064907 12 90 1.6 4.8 0.00 0.00 0.00 86 1032.2
20260502064407 12 113 0.0 3.2 0.00 0.00 0.00 86 1032.1
20260502063907 12 101 0.0 1.6 0.00 0.00 0.00 86 1032.0
20260502063407 12 103 0.0 1.6 0.00 0.00 0.00 86 1031.9
20260502062907 12 112 0.0 1.6 0.00 0.00 0.00 85 1031.9
20260502062406 12 112 0.0 4.8 0.00 0.00 0.00 85 1031.8
20260502061906 12 130 0.0 3.2 0.00 0.00 0.00 85 1031.7
20260502061407 12 119 0.0 1.6 0.00 0.00 0.00 85 1031.7
20260502055907 12 112 1.6 11.3 0.00 0.00 0.00 84 1031.7
20260502055406 12 121 3.2 8.0 0.00 0.00 0.00 84 1031.7
20260502053907 13 116 4.8 12.9 0.00 0.00 0.00 83 1031.5
20260502053406 13 106 3.2 11.3 0.00 0.00 0.00 82 1031.4
20260502052907 13 108 3.2 9.7 0.00 0.00 0.00 82 1031.4
20260502052407 13 135 1.6 8.0 0.00 0.00 0.00 82 1031.3
20260502051907 13 120 4.8 11.3 0.00 0.00 0.00 82 1031.4
20260502051406 13 82 4.8 14.5 0.00 0.00 0.00 81 1031.4
20260502050407 14 115 4.8 14.5 0.00 0.00 0.00 80 1031.3
20260502045906 14 101 6.4 14.5 0.00 0.00 0.00 80 1031.4
20260502045407 14 78 3.2 11.3 0.00 0.00 0.00 80 1031.3
20260502044907 14 83 8.0 14.5 0.00 0.00 0.00 79 1031.3
20260502044406 15 71 4.8 14.5 0.00 0.00 0.00 79 1031.3
20260502043907 15 104 6.4 14.5 0.00 0.00 0.00 79 1031.3
20260502043406 15 87 6.4 14.5 0.00 0.00 0.00 79 1031.2
20260502042906 15 83 4.8 16.1 0.00 0.00 0.00 79 1031.2
20260502041906 15 82 9.7 19.3 0.00 0.00 0.00 78 1031.2
20260502040907 15 96 6.4 16.1 0.00 0.00 0.00 78 1031.3
20260502040407 15 74 6.4 12.9 0.00 0.00 0.00 78 1031.3
20260502035907 15 96 9.7 19.3 0.00 0.00 0.00 77 1031.3
20260502035407 16 85 4.8 14.5 0.00 0.00 0.00 78 1031.4
20260502034907 15 103 3.2 11.3 0.00 0.00 0.00 79 1031.4
20260502034407 15 76 4.8 16.1 0.00 0.00 0.00 78 1031.4
20260502033907 15 126 6.4 14.5 0.00 0.00 0.00 78 1031.4
20260502033407 15 71 6.4 16.1 0.00 0.00 0.00 78 1031.4
20260502032906 16 94 4.8 19.3 0.00 0.00 0.00 77 1031.5
20260502032407 16 57 1.6 12.9 0.00 0.00 0.00 78 1031.5
20260502031407 16 64 4.8 14.5 0.00 0.00 0.00 77 1031.5
20260502030907 16 74 8.0 14.5 0.00 0.00 0.00 76 1031.5
20260502025907 16 37 4.8 12.9 0.00 0.00 0.00 76 1031.5
20260502025407 16 77 6.4 14.5 0.00 0.00 0.00 75 1031.5
20260502024906 17 62 3.2 8.0 0.00 0.00 0.00 75 1031.5
20260502023906 17 118 3.2 4.8 0.00 0.00 0.00 74 1031.6
20260502023406 17 37 0.0 9.7 0.00 0.00 0.00 74 1031.6
20260502022907 17 87 3.2 4.8 0.00 0.00 0.00 75 1031.7
20260502022406 16 72 3.2 8.0 0.00 0.00 0.00 75 1031.8
20260502021406 16 117 3.2 9.7 0.00 0.00 0.00 76 1031.9
20260502020407 16 51 3.2 9.7 0.00 0.00 0.00 77 1031.9
20260502015906 16 33 3.2 11.3 0.00 0.00 0.00 76 1032.0
20260502015407 16 53 4.8 16.1 0.00 0.00 0.00 75 1032.0
20260502014907 16 39 3.2 14.5 0.00 0.00 0.00 77 1032.0
20260502014407 16 60 4.8 11.3 0.00 0.00 0.00 77 1032.1
20260502013907 16 89 4.8 12.9 0.00 0.00 0.00 76 1032.2
20260502013406 16 37 4.8 11.3 0.00 0.00 0.00 75 1032.2
20260502012407 16 69 4.8 16.1 0.00 0.00 0.00 75 1032.3
20260502011906 17 53 4.8 19.3 0.00 0.00 0.00 75 1032.4
20260502011406 17 102 3.2 12.9 0.00 0.00 0.00 74 1032.5
20260502010907 17 103 3.2 11.3 0.00 0.00 0.00 73 1032.5
20260502010407 17 217 1.6 3.2 0.00 0.00 0.00 71 1032.5
20260502005906 17 242 1.6 3.2 0.00 0.00 0.00 73 1032.6
20260502005407 16 23 1.6 8.0 0.00 0.00 0.00 75 1032.7
20260502004407 17 7 6.4 9.7 0.00 0.00 0.00 73 1032.8
20260502003906 17 341 1.6 4.8 0.00 0.00 0.00 73 1032.9
20260502003406 17 238 1.6 4.8 0.00 0.00 0.00 73 1033.0
20260502002907 16 277 1.6 4.8 0.00 0.00 0.00 73 1033.1
20260502002407 16 214 1.6 4.8 0.00 0.00 0.00 72 1033.2
20260502001408 16 317 3.2 4.8 0.00 0.00 0.00 75 1033.5
20260502000906 16 353 1.6 4.8 0.00 0.00 0.00 75 1033.5
20260502000409 16 350 3.2 4.8 0.00 0.00 0.00 76 1033.6
20260501235907 16 342 3.2 4.8 0.00 0.00 0.00 76 1033.7
20260501235408 16 341 3.2 9.7 0.00 0.00 0.00 76 1033.7
20260501234906 16 233 1.6 4.8 0.00 0.00 0.00 76 1033.7
20260501233906 16 355 1.6 4.8 0.00 0.00 0.00 77 1033.8
20260501233406 16 269 3.2 4.8 0.00 0.00 0.00 77 1033.9
20260501232906 16 230 1.6 4.8 0.00 0.00 0.00 77 1033.9
20260501232408 16 242 1.6 4.8 0.00 0.00 0.00 76 1034.0
20260501231907 16 245 1.6 4.8 0.00 0.00 0.00 76 1034.0
20260501231409 16 260 1.6 4.8 0.00 0.00 0.00 77 1034.0
20260501230907 16 275 1.6 4.8 0.00 0.00 0.00 77 1034.0
20260501225906 15 359 1.6 3.2 0.00 0.00 0.00 78 1034.1
20260501224907 15 359 1.6 4.8 0.00 0.00 0.00 78 1034.2
20260501224409 15 234 3.2 4.8 0.00 0.00 0.00 79 1034.2
20260501223407 15 344 1.6 4.8 0.00 0.00 0.00 79 1034.1
20260501222408 15 261 1.6 4.8 0.00 0.00 0.00 80 1034.2
20260501221907 15 240 3.2 4.8 0.00 0.00 0.00 81 1034.2
20260501221407 15 252 1.6 4.8 0.00 0.00 0.00 82 1034.3
20260501220906 14 11 1.6 3.2 0.00 0.00 0.00 83 1034.3
20260501220408 14 12 1.6 3.2 0.00 0.00 0.00 85 1034.3
20260501215907 13 25 1.6 3.2 0.00 0.00 0.00 86 1034.4
20260501215407 13 25 1.6 3.2 0.00 0.00 0.00 87 1034.5
20260501213906 12 39 0.0 1.6 0.00 0.00 0.00 89 1034.6
20260501212907 12 35 0.0 1.6 0.00 0.00 0.00 90 1034.7
20260501212407 12 35 0.0 0.0 0.00 0.00 0.00 90 1034.7
20260501211906 12 35 0.0 0.0 0.00 0.00 0.00 90 1034.7
20260501210907 11 35 0.0 1.6 0.00 0.00 0.00 90 1034.7
20260501210408 11 35 0.0 1.6 0.00 0.00 0.00 90 1034.7
20260501205906 11 35 0.0 1.6 0.00 0.00 0.00 90 1034.7
20260501205406 11 35 0.0 1.6 0.00 0.00 0.00 90 1034.7
20260501204907 11 35 0.0 1.6 0.00 0.00 0.00 90 1034.7
20260501203907 11 35 0.0 1.6 0.00 0.00 0.00 90 1034.7
20260501203406 11 355 0.0 0.0 0.00 0.00 0.00 90 1034.7
20260501202906 11 354 0.0 1.6 0.00 0.00 0.00 90 1034.7
20260501202406 11 352 0.0 1.6 0.00 0.00 0.00 90 1034.6
20260501201907 11 351 0.0 1.6 0.00 0.00 0.00 90 1034.5
20260501201406 11 350 0.0 1.6 0.00 0.00 0.00 90 1034.5
20260501200907 11 355 0.0 1.6 0.00 0.00 0.00 90 1034.5
20260501200407 11 354 0.0 1.6 0.00 0.00 0.00 90 1034.4
20260501195906 10 352 0.0 1.6 0.00 0.00 0.00 90 1034.4
20260501195407 10 351 0.0 1.6 0.00 0.00 0.00 90 1034.4
20260501194906 10 350 0.0 0.0 0.00 0.00 0.00 90 1034.3
20260501193906 10 355 0.0 1.6 0.00 0.00 0.00 89 1034.2
20260501192907 11 350 0.0 1.6 0.00 0.00 0.00 90 1034.2
20260501191906 11 98 3.2 4.8 0.00 0.00 0.00 89 1034.1
20260501191406 11 116 1.6 3.2 0.00 0.00 0.00 89 1034.2
20260501190906 11 109 0.0 1.6 0.00 0.00 0.00 89 1034.2
20260501190407 11 109 0.0 1.6 0.00 0.00 0.00 89 1034.2
20260501185906 11 109 0.0 1.6 0.00 0.00 0.00 89 1034.2
20260501185407 11 109 0.0 1.6 0.00 0.00 0.00 89 1034.2
20260501184906 11 109 0.0 1.6 0.00 0.00 0.00 89 1034.2
20260501184406 11 109 0.0 0.0 0.00 0.00 0.00 89 1034.2
20260501183907 11 109 0.0 0.0 0.00 0.00 0.00 89 1034.2
20260501183406 11 109 0.0 0.0 0.00 0.00 0.00 89 1034.2
20260501182906 11 109 0.0 0.0 0.00 0.00 0.00 89 1034.2
20260501182407 11 109 0.0 0.0 0.00 0.00 0.00 89 1034.2
20260501181906 11 109 0.0 0.0 0.00 0.00 0.00 89 1034.2
20260501181407 11 109 0.0 0.0 0.00 0.00 0.00 89 1034.1
20260501180906 11 109 0.0 0.0 0.00 0.00 0.00 88 1034.1
20260501175406 11 109 0.0 0.0 0.00 0.00 0.00 88 1034.1
20260501174906 11 109 0.0 1.6 0.00 0.00 0.00 88 1034.0
20260501173906 11 108 0.0 0.0 0.00 0.00 0.00 88 1034.0
20260501172906 11 108 0.0 0.0 0.00 0.00 0.00 89 1034.0
20260501172406 12 108 0.0 0.0 0.00 0.00 0.00 89 1034.0
20260501171907 12 108 0.0 0.0 0.00 0.00 0.00 88 1034.1
20260501171406 12 108 0.0 0.0 0.00 0.00 0.00 88 1034.1
20260501170907 12 108 0.0 0.0 0.00 0.00 0.00 89 1034.1
20260501170406 12 108 0.0 0.0 0.00 0.00 0.00 89 1034.1
20260501165906 12 108 0.0 0.0 0.00 0.00 0.00 88 1034.1
20260501165407 12 108 0.0 0.0 0.00 0.00 0.00 88 1034.1
20260501164406 12 108 0.0 0.0 0.00 0.00 0.00 88 1034.1
20260501163907 12 108 0.0 0.0 0.00 0.00 0.00 88 1034.1